Leadville, CO

3:19 PM MDT on May 24, 2017 (GMT -0600)
Lake County

Weather History for KLXV - October, 2012

Change the Weather History Date:

Monday, October 29, 2012

  Actual Average Record
Temperature  
Mean Temperature 37 °F -  
Max Temperature 49 °F 44 °F 57 °F (1987)
Min Temperature 25 °F 19 °F -1 °F (1991)
Degree Days  
Heating Degree Days 28 33  
Month to date heating degree days 799 823  
Since 1 July heating degree days 1905 2121  
Cooling Degree Days 0 0  
Month to date cooling degree days 0 0  
Year to date cooling degree days 0 0  
Moisture  
Dew Point 21 °F    
Average Humidity 56    
Maximum Humidity 81    
Minimum Humidity 31    
Precipitation  
Precipitation 0.00 in 0.03 in 0.07 in (2013)
Month to date precipitation 0.75 0.85  
Year to date precipitation 10.14 10.88  
Sea Level Pressure  
Sea Level Pressure 30.12 in    
Wind  
Wind Speed 8 mph (North)    
Max Wind Speed 21 mph    
Max Gust Speed 28 mph    
Visibility 10 miles    
Events      
T = Trace of Precipitation, MM = Missing Value Source: NWS Daily Summary

Daily Weather History Graph

Daily Weather History Graph

Search for Another Location

Airport or City:

Trip Planner

Search our weather history database for the weather conditions in past years. The results will help you decide how hot, cold, wet, or windy it might be!

Date:

Astronomy

Oct. 29, 2012 Rise Set
Actual Time 7:30 AM MDT 6:07 PM MDT
Civil Twilight 7:02 AM MDT 6:34 PM MDT
Nautical Twilight 6:31 AM MDT 7:06 PM MDT
Astronomical Twilight 5:59 AM MDT 7:37 PM MDT
Moon 6:01 PM MDT (10/29) 7:23 AM MDT (10/29)
Length of Visible Light 11h 31m
Length of Day
10h 36m
Full, 100% of the Moon is Illuminated
Oct 29
Full
Oct 29
Full
Nov 6
Last Quarter
Nov 13
New
Nov 20
First Quarter

Hourly Weather History & Observations

Time (MDT) Temp. Windchill Dew Point Humidity Pressure Visibility Wind Dir Wind Speed Gust Speed Precip Events Conditions
12:53 AM 33.1 °F 28.7 °F 21.9 °F 64% 30.07 in 10.0 mi Variable 4.6 mph - N/A   Overcast
1:53 AM 28.9 °F 25.2 °F 21.0 °F 72% 30.12 in 10.0 mi Variable 3.5 mph - N/A   Overcast
2:53 AM 28.0 °F 21.7 °F 21.0 °F 75% 30.11 in 10.0 mi ENE 5.8 mph - N/A   Mostly Cloudy
3:53 AM 28.0 °F 22.8 °F 21.0 °F 75% 30.09 in 10.0 mi Variable 4.6 mph - N/A   Clear
4:53 AM 26.1 °F 18.4 °F 21.0 °F 81% 30.11 in 10.0 mi NNE 6.9 mph - N/A   Clear
5:53 AM 26.1 °F 18.4 °F 19.9 °F 78% 30.15 in 10.0 mi NNE 6.9 mph - N/A   Clear
6:53 AM 27.0 °F 21.6 °F 19.9 °F 75% 30.16 in 10.0 mi Variable 4.6 mph - N/A   Clear
7:53 AM 27.0 °F 20.5 °F 21.0 °F 78% 30.18 in 10.0 mi Variable 5.8 mph - N/A   Clear
8:53 AM 33.1 °F 27.7 °F 21.9 °F 64% 30.17 in 10.0 mi North 5.8 mph - N/A   Clear
9:53 AM 39.9 °F 34.5 °F 24.1 °F 53% 30.14 in 10.0 mi NNW 8.1 mph - N/A   Clear
10:53 AM 43.0 °F 36.0 °F 23.0 °F 45% 30.13 in 10.0 mi NNW 13.8 mph 24.2 mph N/A   Clear
11:53 AM 44.1 °F 36.8 °F 23.0 °F 43% 30.11 in 10.0 mi NW 16.1 mph 25.3 mph N/A   Clear
12:53 PM 46.0 °F 39.6 °F 21.0 °F 37% 30.06 in 10.0 mi NW 15.0 mph 19.6 mph N/A   Clear
1:53 PM 46.9 °F - 19.0 °F 33% 30.08 in 10.0 mi NW 11.5 mph 20.7 mph N/A   Clear
2:53 PM 48.0 °F - 19.0 °F 32% 30.07 in 10.0 mi NNW 10.4 mph 16.1 mph N/A   Clear
3:53 PM 46.9 °F - 19.9 °F 34% 30.06 in 10.0 mi Variable 5.8 mph 16.1 mph N/A   Partly Cloudy
4:53 PM 46.9 °F - 21.0 °F 36% 30.08 in 10.0 mi NNW 9.2 mph 16.1 mph N/A   Clear
5:53 PM 43.0 °F 37.7 °F 21.0 °F 42% 30.12 in 10.0 mi NW 9.2 mph - N/A   Clear
6:53 PM 39.0 °F 34.8 °F 19.9 °F 46% 30.18 in 10.0 mi North 5.8 mph - N/A   Clear
7:53 PM 39.0 °F 32.8 °F 21.0 °F 49% 30.18 in 10.0 mi North 9.2 mph 17.3 mph N/A   Clear
8:53 PM 37.0 °F 31.6 °F 21.9 °F 54% 30.15 in 10.0 mi WNW 6.9 mph - N/A   Clear
9:53 PM 32.0 °F 28.7 °F 19.9 °F 61% 30.14 in 10.0 mi NNE 3.5 mph - N/A   Clear
10:53 PM 28.0 °F 21.7 °F 21.0 °F 75% 30.15 in 10.0 mi NE 5.8 mph - N/A   Clear
11:53 PM 28.0 °F 22.8 °F 19.9 °F 72% 30.15 in 10.0 mi NE 4.6 mph - N/A   Clear